When you browse on this site, cookies collect data to enhance your experience and personalize the content and advertising you see.
Visit our Privacy Policy to learn more. By continuing to use the site, you agree to this use of cookies and data.
  • In Latvia
  • List of Countries
  • For 7 days
  • Water Temperature
  • Satellite Maps
  • Weather Map
  • Weather Widgets
  • user-avatar
    Login

    Hourly Weather Balvi

    Today, 17 January, Thursday

    Time Temperature Precipitation Wind Pressure Humidity
    00:00 -9°C° 0.3 mm 4 mps 737 mmHg 91%
    01:00 -8°C° 0.3 mm 4 mps 736 mmHg 92%
    02:00 -7°C° 0 mm 7 mps 735 mmHg 92%
    03:00 -5°C° 0.5 mm 6 mps 734 mmHg 91%
    04:00 -3°C° 0.5 mm 6 mps 733 mmHg 91%
    05:00 -2°C° 0.5 mm 6 mps 732 mmHg 91%
    06:00 -1°C° 0.3 mm 6 mps 732 mmHg 91%
    07:00 -1°C° 0.3 mm 6 mps 731 mmHg 92%
    08:00 -1°C° 0.3 mm 6 mps 731 mmHg 92%
    09:00 -1°C° 0.3 mm 6 mps 730 mmHg 92%
    10:00 -1°C° 0.3 mm 6 mps 730 mmHg 92%
    11:00 -1°C° 0.3 mm 6 mps 730 mmHg 91%
    12:00 -1°C° 0.4 mm 6 mps 729 mmHg 91%
    13:00 -1°C° 0.4 mm 6 mps 729 mmHg 90%
    14:00 -1°C° 0.4 mm 6 mps 729 mmHg 90%
    15:00 -1°C° 0.3 mm 6 mps 729 mmHg 90%
    16:00 -1°C° 0.3 mm 6 mps 729 mmHg 90%
    17:00 -1°C° 0.3 mm 6 mps 729 mmHg 90%
    18:00 -1°C° 0.3 mm 6 mps 729 mmHg 90%
    19:00 0°C° 0.3 mm 5 mps 730 mmHg 91%
    20:00 0°C° 0.3 mm 5 mps 730 mmHg 91%
    21:00 -1°C° 0.1 mm 4 mps 731 mmHg 90%
    22:00 -2°C° 0.1 mm 4 mps 732 mmHg 88%
    23:00 -2°C° 0.1 mm 4 mps 732 mmHg 86%

    Tomorrow, 18 January, Friday

    Time Temperature Precipitation Wind Pressure Humidity
    00:00 -4°C° 0 mm 4 mps 733 mmHg 87%
    01:00 -5°C° 0 mm 3 mps 734 mmHg 88%
    02:00 -6°C° 0 mm 3 mps 734 mmHg 90%
    03:00 -7°C° 0 mm 3 mps 735 mmHg 90%
    04:00 -6°C° 0 mm 2 mps 736 mmHg 90%
    05:00 -6°C° 0 mm 2 mps 736 mmHg 90%
    06:00 -7°C° 0 mm 2 mps 737 mmHg 91%
    07:00 -8°C° 0 mm 2 mps 738 mmHg 92%
    08:00 -8°C° 0 mm 1 mps 738 mmHg 94%
    09:00 -8°C° 0 mm 1 mps 739 mmHg 92%
    10:00 -7°C° 0 mm 1 mps 739 mmHg 90%
    11:00 -7°C° 0 mm 1 mps 739 mmHg 88%
    12:00 -6°C° 0 mm 1 mps 739 mmHg 88%
    13:00 -6°C° 0 mm 1 mps 740 mmHg 87%
    14:00 -4°C° 0 mm 1 mps 740 mmHg 86%
    15:00 -7°C° 0 mm 2 mps 740 mmHg 88%
    16:00 -7°C° 0 mm 2 mps 740 mmHg 90%
    17:00 -8°C° 0 mm 2 mps 741 mmHg 92%
    18:00 -9°C° 0 mm 3 mps 741 mmHg 91%
    19:00 -8°C° 0 mm 3 mps 741 mmHg 89%
    20:00 -8°C° 0 mm 3 mps 742 mmHg 88%
    21:00 -8°C° 0 mm 3 mps 742 mmHg 90%
    22:00 -8°C° 0 mm 3 mps 743 mmHg 91%
    23:00 -8°C° 0 mm 3 mps 743 mmHg 92%

    Day after tomorrow, 19 January, Saturday

    Time Temperature Precipitation Wind Pressure Humidity
    00:00 -7°C° 0.1 mm 3 mps 744 mmHg 92%
    01:00 -7°C° 0.1 mm 3 mps 744 mmHg 92%
    02:00 -6°C° 0.1 mm 3 mps 744 mmHg 92%
    03:00 -7°C° 0 mm 3 mps 744 mmHg 91%
    04:00 -7°C° 0 mm 3 mps 745 mmHg 90%
    05:00 -9°C° 0 mm 4 mps 745 mmHg 89%
    06:00 -8°C° 0 mm 3 mps 745 mmHg 90%
    07:00 -8°C° 0 mm 3 mps 745 mmHg 90%
    08:00 -8°C° 0 mm 3 mps 745 mmHg 91%
    09:00 -7°C° 0 mm 3 mps 746 mmHg 89%
    10:00 -8°C° 0 mm 4 mps 746 mmHg 88%
    11:00 -7°C° 0 mm 4 mps 747 mmHg 86%
    12:00 -6°C° 0 mm 3 mps 747 mmHg 86%
    13:00 -5°C° 0 mm 3 mps 747 mmHg 85%
    14:00 -5°C° 0 mm 3 mps 747 mmHg 84%
    15:00 -5°C° 0 mm 3 mps 747 mmHg 86%
    16:00 -6°C° 0 mm 3 mps 747 mmHg 88%
    17:00 -7°C° 0 mm 3 mps 747 mmHg 89%
    18:00 -7°C° 0 mm 3 mps 748 mmHg 89%
    19:00 -8°C° 0 mm 3 mps 748 mmHg 89%
    20:00 -8°C° 0 mm 3 mps 748 mmHg 89%
    21:00 -8°C° 0 mm 3 mps 748 mmHg 89%
    22:00 -7°C° 0 mm 3 mps 749 mmHg 88%
    23:00 -8°C° 0 mm 4 mps 749 mmHg 88%

    20 January, Sunday

    Time Temperature Precipitation Wind Pressure Humidity
    00:00 -9°C° 0 mm 4 mps 749 mmHg 88%
    01:00 -9°C° 0 mm 4 mps 749 mmHg 89%
    02:00 -9°C° 0 mm 4 mps 748 mmHg 89%
    03:00 -8°C° 0 mm 4 mps 748 mmHg 89%
    04:00 -8°C° 0 mm 4 mps 747 mmHg 89%
    05:00 -8°C° 0 mm 5 mps 747 mmHg 89%
    06:00 -7°C° 0.4 mm 5 mps 747 mmHg 90%
    07:00 -6°C° 0.4 mm 5 mps 746 mmHg 91%
    08:00 -5°C° 0.4 mm 5 mps 746 mmHg 92%
    09:00 -4°C° 0.4 mm 4 mps 746 mmHg 91%
    10:00 -4°C° 0.4 mm 3 mps 747 mmHg 89%
    11:00 -4°C° 0.4 mm 2 mps 747 mmHg 88%
    12:00 -4°C° 0 mm 2 mps 747 mmHg 86%
    13:00 -4°C° 0 mm 2 mps 747 mmHg 85%
    14:00 -4°C° 0 mm 2 mps 747 mmHg 83%
    15:00 -5°C° 0 mm 2 mps 747 mmHg 85%
    16:00 -6°C° 0 mm 2 mps 747 mmHg 88%
    17:00 -8°C° 0 mm 2 mps 747 mmHg 90%
    18:00 -8°C° 0 mm 2 mps 747 mmHg 90%
    19:00 -9°C° 0 mm 2 mps 748 mmHg 91%
    20:00 -9°C° 0 mm 2 mps 748 mmHg 91%
    21:00 -9°C° 0 mm 2 mps 748 mmHg 92%
    22:00 -10°C° 0 mm 2 mps 749 mmHg 93%
    23:00 -10°C° 0 mm 2 mps 749 mmHg 94%

    21 January, Monday

    Time Temperature Precipitation Wind Pressure Humidity
    00:00 -10°C° 0 mm 2 mps 749 mmHg 94%
    01:00 -12°C° 0 mm 2 mps 750 mmHg 94%
    02:00 -13°C° 0 mm 2 mps 750 mmHg 95%
    03:00 -13°C° 0 mm 2 mps 750 mmHg 94%
    04:00 -14°C° 0 mm 2 mps 750 mmHg 94%
    05:00 -14°C° 0 mm 2 mps 751 mmHg 93%
    06:00 -13°C° 0 mm 2 mps 751 mmHg 93%
    07:00 -13°C° 0 mm 2 mps 751 mmHg 92%
    08:00 -12°C° 0 mm 2 mps 751 mmHg 92%
    09:00 -9°C° 0 mm 2 mps 751 mmHg 91%
    10:00 -9°C° 0 mm 3 mps 751 mmHg 90%
    11:00 -7°C° 0 mm 3 mps 751 mmHg 90%
    12:00 -7°C° 0 mm 3 mps 751 mmHg 88%
    13:00 -6°C° 0 mm 3 mps 751 mmHg 86%
    14:00 -6°C° 0 mm 3 mps 751 mmHg 84%
    15:00 -6°C° 0.3 mm 3 mps 751 mmHg 85%
    16:00 -6°C° 0.3 mm 3 mps 751 mmHg 86%
    17:00 -5°C° 0.3 mm 4 mps 751 mmHg 87%
    18:00 -7°C° 0 mm 3 mps 751 mmHg 89%
    19:00 -8°C° 0 mm 3 mps 751 mmHg 91%
    20:00 -8°C° 0 mm 2 mps 751 mmHg 93%
    21:00 -9°C° 0 mm 2 mps 751 mmHg 94%
    22:00 -9°C° 0 mm 2 mps 751 mmHg 94%
    23:00 -10°C° 0 mm 2 mps 752 mmHg 95%

    22 January, Tuesday

    Time Temperature Precipitation Wind Pressure Humidity
    00:00 -9°C° 0 mm 2 mps 752 mmHg 94%
    01:00 -9°C° 0 mm 2 mps 752 mmHg 94%
    02:00 -8°C° 0 mm 2 mps 752 mmHg 93%
    03:00 -8°C° 0 mm 2 mps 751 mmHg 93%
    04:00 -9°C° 0 mm 2 mps 751 mmHg 93%
    05:00 -9°C° 0 mm 2 mps 751 mmHg 93%
    06:00 -10°C° 0 mm 2 mps 751 mmHg 94%
    07:00 -10°C° 0 mm 2 mps 751 mmHg 95%
    08:00 -10°C° 0 mm 2 mps 751 mmHg 95%
    09:00 -9°C° 0 mm 2 mps 751 mmHg 95%
    10:00 -8°C° 0 mm 2 mps 752 mmHg 94%
    11:00 -7°C° 0 mm 2 mps 752 mmHg 94%
    12:00 -6°C° 0 mm 2 mps 752 mmHg 94%
    13:00 -6°C° 0 mm 2 mps 752 mmHg 93%
    14:00 -5°C° 0 mm 2 mps 752 mmHg 93%
    15:00 -4°C° 0 mm 1 mps 752 mmHg 93%
    16:00 -6°C° 0 mm 1 mps 753 mmHg 94%
    17:00 -7°C° 0 mm 1 mps 753 mmHg 95%
    18:00 -8°C° 0 mm 1 mps 753 mmHg 94%
    19:00 -9°C° 0 mm 1 mps 753 mmHg 94%
    20:00 -10°C° 0 mm 1 mps 753 mmHg 93%
    21:00 -11°C° 0 mm 1 mps 754 mmHg 93%
    22:00 -12°C° 0 mm 1 mps 754 mmHg 93%
    23:00 -12°C° 0 mm 1 mps 754 mmHg 92%
    Show more